Regional Weather Roundup
Issued by NWS

Home | Current Version | Previous Version | Text Only | Print | Product List | Glossary On
Versions: 1 2 3 4 5 6 7 8 9 10 11 12 13 14 15 16 17 18 19 20 21 22 23 24 25 26 27 28 29 30 31 32 33 34 35 36 37 38 39 40 41 42 43 44 45 46 47 48 49 50
000
ASUS44 KFWD 301110
RWRTX
NORTH TEXAS HOURLY WEATHER ROUNDUP
NATIONAL WEATHER SERVICE FORT WORTH TX
600 AM CDT MON MAY 30 2016

NOTE: "FAIR" INDICATES FEW OR NO CLOUDS BELOW 12,000 FEET WITH NO
SIGNIFICANT WEATHER AND/OR OBSTRUCTIONS TO VISIBILITY.

TXZ118-119-301200-
DALLAS/FORT WORTH METROPLEX

CITY           SKY/WX    TMP DP  RH WIND       PRES   REMARKS
DFW AIRPORT    CLOUDY    71  60  68 S12G24    29.84F
DALLAS LOVE    CLOUDY    72  60  66 SE16G26   29.85F
FTW MEACHAM    CLOUDY    70  60  70 W15G23    29.89F
DAL-EXECUTIVE  LGT RAIN  68  61  78 S15G30    29.84F
FTW-ALLIANCE   CLOUDY    68  60  75 W9        29.92R
FTW-NAS-JRB    CLOUDY    73  58  59 SW15G35   29.89R
FTW-SPINKS     CLOUDY    68  59  72 S21G30    29.84F
ARLINGTON      CLOUDY    71  62  73 SE26G36   29.81F
GRAND PRAIRIE  CLOUDY    69  60  72 S24G35    29.83F
ADDISON        CLOUDY    70  64  83 SE10G21   29.89F
MESQUITE       CLOUDY    66  65  97 S17G24    29.91F
LANCASTER      CLOUDY    64  62  93 S22G29    29.94F
$$

TXZ091>094-102>105-117-120-121-131>134-301200-
NORTH CENTRAL TEXAS

CITY           SKY/WX    TMP DP  RH WIND       PRES   REMARKS
SHRMAN/DENISON CLOUDY    63  60  91 E14       29.97F
GAINESVILLE    LGT RAIN  65  64  96 W5        30.03R
BOWIE          CLOUDY    65  64  96 N5        30.02R
BRIDGEPORT     CLOUDY    66  66 100 CALM      29.96R
DECATUR        CLOUDY    65  64  97 NE3       29.96R
DENTON         LGT RAIN  67  65  93 N9        29.94R
MCKINNEY       CLOUDY    67  64  90 NE9       29.93F
GREENVILLE     RAIN      68  64  88 E6        30.01F
ROCKWALL       CLOUDY    67  65  95 E15G21    29.93F
TERRELL        RAIN      67  65  93 SE15      30.01F
WAXAHACHIE     CLOUDY    68  62  82 S17       29.93F
CLEBURNE       CLOUDY    68  63  83 S24G31    29.87F
GRANBURY       CLOUDY    69  62  78 SW7       29.93R
$$

TXZ083>090-098>101-113>116-127>130-139>142-154-155-301200-
WESTERN NORTH TEXAS

CITY           SKY/WX    TMP DP  RH WIND       PRES   REMARKS
WICHITA FALLS  CLOUDY    65  63  93 N10       30.00R
WF-KICKAPOO    CLOUDY    67  62  83 NW9       30.02R
VERNON         CLOUDY    63  58  86 N5        30.03R
ABILENE        CLOUDY    65  63  93 S13       30.00S
ABILENE-DYESS  CLOUDY    65  62  91 SE10      29.99S
GRAHAM         CLOUDY    64  64 100 CALM      29.97R
MINERAL WELLS  CLOUDY    67  63  87 W12       29.94R
STEPHENVILLE   CLOUDY    66  60  82 S7        29.97F
COMANCHE       CLOUDY    63  63 100 S8        29.99F
BROWNWOOD      CLOUDY    63  63 100 S5        30.01S
COLEMAN        CLOUDY    64  63  97 S10       30.01F
$$

TXZ143>147-156>162-174-175-301200-
CENTRAL TEXAS

CITY           SKY/WX    TMP DP  RH WIND       PRES   REMARKS
WACO           RAIN      69  59  70 S28G35    29.97F
WACO-MCGREGOR  LGT RAIN  67  65  93 S21       29.99F
HILLSBORO      LGT RAIN  68  62  80 CALM      29.97F
CORSICANA      LGT RAIN  69  65  86 SW7       30.03F
MEXIA          CLOUDY    71  70  95 W12G22    30.06F
HEARNE         CLOUDY    72  72  98 CALM      30.08R
CAMERON        CLOUDY    73  72  96 CALM      30.07F
TEMPLE         LGT RAIN  70  67  90 N12       30.09F
KILLEEN        TSTM      68  66  94 VRB6      30.04F FOG
KILLEEN-SKYLRK TSTM      69  63  81 E9        30.04F
FORT HOOD      LGT RAIN  68  61  77 SE10      30.00F
GATESVILLE     LGT RAIN  66  63  88 S17       29.99F
HAMILTON       CLOUDY    67  61  81 S17G26    29.95F
LAMPASAS       RAIN      63  62  97 SE7       30.04F
$$

TXZ095>097-106>112-122>126-135>138-148>153-164>167-301200-
EAST TEXAS

CITY           SKY/WX    TMP DP  RH WIND       PRES   REMARKS
PARIS          CLOUDY    66  57  72 N9        30.04S
SULPHUR SPRNGS TSTM      70  67  88 W21G30    30.07R
MOUNT PLEASANT CLOUDY    69  64  86 CALM      30.04R
GILMER         CLOUDY    68  64  88 CALM      30.03R
MINEOLA        CLOUDY    73  70  88 SW8       30.04R
TYLER          CLOUDY    73  68  84 SW5       30.03R
LONGVIEW       MOCLDY    69  68  96 S3        30.02R
MARSHALL       CLOUDY    65  63  92 CALM      30.04S
ATHENS         CLOUDY    72  72 100 CALM      30.03R
PALESTINE      MOCLDY    71  70  97 W6        30.06R
JACKSONVILLE   CLOUDY    71  70  95 CALM      30.06R
HENDERSON      CLOUDY    68  67  98 CALM      30.05R
CENTER         FAIR      70  69  96 CALM      30.01F
NACOGDOCHES    CLOUDY    66  64  94 CALM      30.03R
LUFKIN         CLOUDY    68  67  96 CALM      30.02R FOG
$$

SUPPLEMENTAL OBSERVATIONS (CENTRAL)

CITY           SKY/WX    TMP DP  RH WIND       PRES   REMARKS
CADDO GRASSLND   N/A     66  63  88 NE2G14      N/A
PAT MAYSE LAKE   N/A     64  63  94 N7          N/A
GREENVILLE       N/A     66  63  88 NE6G31      N/A
MCGREGOR         N/A     68  63  83 S17         N/A
$$

SUPPLEMENTAL OBSERVATIONS (WEST)

CITY           SKY/WX    TMP DP  RH WIND       PRES   REMARKS
LBJ GRASSLAND    N/A     64  63  94 NW1         N/A
HAMBY            N/A     64  63  94 S6          N/A
$$

SUPPLEMENTAL OBSERVATIONS (EAST)

CITY           SKY/WX    TMP DP  RH WIND       PRES   REMARKS
N SABINE NF      N/A     70  68  94 MISG        N/A
$$

SUPPLEMENTAL OBSERVATIONS ARE A COLLECTION OF AUTOMATED INSTRUMENTS
THAT ARE MAINTAINED BY A VARIETY OF FEDERAL AND STATE AGENCIES.
CERTAIN ELEMENTS...SUCH AS HUMIDITY VALUES AND SUSTAINED WIND
SPEEDS...MAY BE APPROXIMATED.




USA.gov is the U.S. government's official web portal to all federal, state and local government web resources and services.